Regional Weather Roundup
Issued by NWS Kansas City/Pleasant Hill, MO

Home | Current Version | Previous Version | Graphics & Text | Print | Product List | Glossary Off
Versions: 1 2 3 4 5 6 7 8 9 10 11 12 13 14 15 16 17 18 19 20 21 22 23 24 25 26 27

000
ASUS43 KEAX 170310
RWREAX

WEATHER ROUNDUP FOR EASTERN KANSAS AND NORTHWEST MISSOURI
NATIONAL WEATHER SERVICE KANSAS CITY/PLEASANT HILL MO
1000 PM CDT MON OCT 16 2017

KSZ040-057-103>105-MOZ028-029-037-043-170400-
...KANSAS CITY METROPOLITAN AREA...

CITY           SKY/WX    TMP DP  RH WIND       PRES   REMARKS
K.C. INTL      PTCLDY    51  43  74 S10       30.24S
K.C. DOWNTOWN  CLEAR     56  42  59 SW7       30.25R
LEES SUMMIT    CLEAR     55  43  63 S10       30.27R
OLATHE - IXD   CLEAR     49  42  77 S7        30.27R
OLATHE - OJC   CLEAR     52  41  66 S6        30.26S
LAWRENCE       CLEAR     50  43  77 SE5       30.25R

$$

MOZ001>008-011>017-020>025-030>033-038>040-044>046-053-054-170400-
...NORTHERN AND CENTRAL MISSOURI...

CITY           SKY/WX    TMP DP  RH WIND       PRES   REMARKS
ST. JOSEPH     CLEAR     55  44  66 S9        30.22R
MOSBY          CLEAR     48  43  81 CALM      30.25S
WARRENSBURG    CLEAR     52  41  66 S5        30.28R
WHITEMAN AFB   CLEAR     51  41  70 SW7       30.24R
CLINTON        CLEAR     50  41  71 CALM      30.29R
SEDALIA        CLEAR     54  44  69 SW5       30.29R
WARSAW         NOT AVBL
CHILLICOTHE      N/A     51  43  74 S3        30.25S
KIRKSVILLE     CLEAR     52  40  63 S6        30.25S

$$

MOZ041-047>049-056>058-063>065-088>090-097-170400-
...EASTERN AND SOUTHERN MISSOURI...

CITY           SKY/WX    TMP DP  RH WIND       PRES   REMARKS
ST. LOUIS INTL CLEAR     53  41  63 SW3       30.31R
SPIRIT OF STL  CLEAR     44  43  96 CALM      30.30R
COLUMBIA       CLEAR     52  41  66 S7        30.29R
JEFFERSON CITY CLEAR     48  43  82 CALM      30.29R
ROLLA          CLEAR     49  39  68 S5        30.31R
OSAGE BEACH    CLEAR     47  43  86 CALM      30.31S
SPRINGFIELD    CLEAR     48  40  73 CALM      30.29F
BRANSON        CLEAR     54  34  47 CALM      30.32S
JOPLIN         CLEAR     49  45  86 CALM      30.30S
WEST PLAINS    CLEAR     44  39  82 CALM      30.33R

$$

IAZ060-094-KSZ022-034>040-054-083-096-NEZ052-066-093-170400-
...KANSAS...SOUTHEAST NEBRASKA AND IOWA...

CITY           SKY/WX    TMP DP  RH WIND       PRES   REMARKS
TOPEKA         CLEAR     56  42  59 S3        30.24R
MANHATTAN      CLEAR     57  41  55 SW9       30.21S
EMPORIA        CLEAR     48  39  71 S10       30.26R
CHANUTE        CLEAR     47  42  83 S5        30.29R
WICHITA        CLEAR     50  42  74 S9        30.25S
OMAHA          PTCLDY    61  40  45 S12       30.12S
LINCOLN        PTCLDY    59  41  51 S13       30.14R
FALLS CITY     CLEAR     57  40  52 S9        30.17F
LAMONI         CLEAR     56  41  57 S12       30.19S
DES MOINES     PTCLDY    56  41  57 S10       30.15S

$$





USA.gov is the U.S. government's official web portal to all federal, state and local government web resources and services.